Location: Kumla
(59.1265°N, 15.1401°E)
Time: 15:34:47
(UTC+01:00)

A-11 Canister half - Visible Passes

Search period start: 03 December 2023 00:00
Search period end: 13 December 2023 00:00
Orbit: 1525 x 1684 km, 47.3° (Epoch: 02 December)

Date Brightness Start Highest point End Pass type
(mag) Time Alt. Az. Time Alt. Az. Time Alt. Az.
03 Dec 10.5 17:56:04 10° SSE 18:00:36 14° SE 18:01:19 14° SE visible
03 Dec 10.2 19:54:38 10° SSW 19:59:38 26° S 19:59:38 26° S visible
03 Dec 11.0 21:57:13 10° WSW 21:57:57 12° WSW 21:57:57 12° WSW visible
04 Dec 10.6 17:34:52 10° SSE 17:38:59 13° SE 17:41:01 12° ESE visible
04 Dec 10.1 19:33:02 10° SSW 19:39:19 28° S 19:39:19 28° S visible
04 Dec 10.8 21:35:30 10° WSW 21:37:38 18° SW 21:37:38 18° SW visible
05 Dec 10.6 17:13:44 10° SSE 17:17:22 12° SE 17:20:40 10° ESE visible
05 Dec 10.0 19:11:26 10° SSW 19:18:57 30° SSE 19:18:57 30° SSE visible
05 Dec 10.5 21:13:48 10° WSW 21:17:16 23° SW 21:17:16 23° SW visible
06 Dec 10.7 16:52:42 10° SE 16:55:45 12° SE 16:58:49 10° ESE visible
06 Dec 9.9 18:49:51 10° SSW 18:58:03 29° SSE 18:58:34 29° SE visible
06 Dec 10.3 20:52:07 10° WSW 20:56:52 28° SW 20:56:52 28° SW visible
07 Dec 10.8 16:31:50 10° SE 16:34:09 11° SE 16:36:28 10° ESE visible
07 Dec 10.0 18:28:16 10° SSW 18:36:22 28° SSE 18:38:08 27° SE visible
07 Dec 10.0 20:30:25 10° WSW 20:36:26 34° SSW 20:36:26 34° SSW visible
07 Dec 11.1 22:34:11 10° W 22:34:44 12° WSW 22:34:44 12° WSW visible
08 Dec 10.9 16:11:26 10° SE 16:12:33 10° SE 16:13:39 10° ESE visible
08 Dec 10.0 18:06:42 10° SSW 18:14:42 28° SSE 18:17:40 24° ESE visible
08 Dec 9.8 20:08:44 10° SW 20:15:58 38° SSW 20:15:58 38° SSW visible
08 Dec 10.9 22:12:27 10° WSW 22:14:16 16° WSW 22:14:16 16° WSW visible
09 Dec 10.2 17:45:09 10° SSW 17:53:03 27° SE 17:57:11 20° ESE visible
09 Dec 9.7 19:47:03 10° SW 19:55:29 40° S 19:55:29 40° S visible
09 Dec 10.7 21:50:43 10° WSW 21:53:46 21° WSW 21:53:46 21° WSW visible
10 Dec 10.2 17:23:37 10° SSW 17:31:23 26° SE 17:36:40 17° ESE visible
10 Dec 9.6 19:25:22 10° SW 19:34:32 41° SSE 19:34:58 40° SSE visible
10 Dec 10.4 21:28:59 10° WSW 21:33:16 26° WSW 21:33:16 26° WSW visible
11 Dec 10.3 17:02:04 10° SSW 17:09:43 25° SE 17:16:09 13° E visible
11 Dec 9.6 19:03:42 10° SW 19:12:50 40° SSE 19:14:26 38° SSE visible
11 Dec 10.2 21:07:16 10° WSW 21:12:44 31° SW 21:12:44 31° SW visible
12 Dec 10.4 16:40:33 10° S 16:48:04 24° SE 16:55:34 10° E visible
12 Dec 9.7 18:42:02 10° SW 18:51:08 40° SSE 18:53:54 34° SE visible
12 Dec 10.0 20:45:31 10° WSW 20:52:11 36° SW 20:52:11 36° SW visible
12 Dec 11.1 22:50:02 10° W 22:50:29 11° W 22:50:29 11° W visible
